Volver al catálogo

CZ-6A DEB

ActivoPO
NORAD 60971·DEBRIS·🇨🇳 China

Lanzado Aug 6, 2024 desde Taiyuan Satellite Launch Center

Loading…

Próximos Pases (próximas 24 horas)

TLE

ActualizadoSource: Space-Track

Época: Sep 14, 2026, 11:05 UTC

1 60971U 24140LW  26257.46229399  .00002859  00000-0  54449-3 0  9993
2 60971  89.0435 263.6612 0087623 296.0317  63.1893 14.61377972110137

Sigue CZ-6A DEB en tiempo real con AllMySat

Download on the App Store